Showing default

ORBCOMM FM 111, 40089

Orbit data source: Space-Track

ORBCOMM FM 111, 40089 is a payload satellite owned by Orbcomm (US) in LEO that was launched on Mon, 14 Jul 2014 UTC via an FALCON 9 launch vehicle from the Air Force Eastern Test Range (AFETR). Payload-class satellites include a variety of spacecraft equipped with specific instruments for various scientific and technological missions. These include communications satellites like Starlink; space stations such as the ISS; scientific satellites like the Hubble; Earth observation satellites from companies like Planet Labs, Umbra, and HawkEye 360; GPS; miniature CubeSats for education and research; and military/defense satellites.

Loading next visibility...
Identifier
40089, 2014-040D
Orbit
LEO
Country
Flag of USUS / ORB
Related business
Manufacturer
SNC Louisville
Mission
Non-operational Commercial Communications
Bus & Motor
SN-100A, Unknown motor
Mass
172 kg wet, 158 kg dry
Launch date (UTC)
2014-07-14 (11 years ago)
Launch vehicle
FALCON 9
Launch site
Air Force Eastern Test Range (AFETR)
Object type
Payload
Rocket body
Debris
Shape & HBR
Box + 1 Pan + 1 Ant, 6.5 m
Radar Cross Section
2.222 m², Medium (>0.1 m² and < 1m²)

Expand to show TLE details & history
Last TLE update: 15 hours ago

TLE from 15 hours ago
0 ORBCOMM FM 111
1 40089U 14040D   25260.23057819  .00002467  00000-0  29570-3 0  9995
2 40089  47.0019 314.8496 0031024 273.7637  85.9713 14.86806335603921
Epoch: 2025-09-17T05:32Z
TLE epoch observation values (Epoch: 2025-09-17T05:32:01.955Z)
Latitude
-0.00002°
Longitude
-124.56807°
Altitude
606.684 km
Speed
7.558 km/s
True Right ascension
20h 59m 23s
True Declination
0° 00' 00"
Sunlit
Object was in full shadow at epoch
Visualization orbit readout
Latitude
Unknown
Longitude
Unknown
Altitude
Unknown
Speed
Unknown
Apparent Right ascension
Unknown
Apparent Declination
Unknown
Sunlit
N/A
Visualization observer readout
Local Sidereal Time
13:32:13
Azimuth
Unknown
Elevation
Unknown
Doppler factor
Unknown
Orbital elements
Apogee altitude
630.85 km
Perigee altitude
587.495 km
Semi-major axis
6,987.309 km
Eccentricity
0.0031
Inclination
47.0019°
RAAN
314.8496°
Arg. of periapsis
273.7637°
True anomaly
86.32602°
Mean anomaly
85.9713°
Eccentric anomaly
86.14865°
Mean motion
3.71602 °/min
Orbital period
96.88 mins
BSTAR
0.0002957
Loading maneuver chart data...
Computing Atmospheric mass density...
Loading historical data...
Loading historical data...
Loading historical data...
Loading historical data...
Loading historical data...
Loading historical data...
Loading historical data...

Documentation

Showing up to 5 results
|